This demonstration page uses our WeatherBlox Daily Observations layout. Learn more.

Left ArrowRight Arrow

Hourly Observations for February 12, 2016

Temp ( °F °C ) Dew Point ( °F °C ) Humidity (%) Winds ( mph kmh ) Pressure ( in mb ) Visibility ( mi km ) Precip ( " mm )
12:15 am 00:15 Clear 36 2.2 30 -0.9 80 80 N 12 19 30.27 1025 10 16 N/A
12:35 am 00:35 Clear 32 -0.2 28 -2.1 87 87 N 7 11 30.30 1026 10 16 N/A
12:55 am 00:55 Clear 31 -0.5 28 -2.1 89 89 N 7 11 30.30 1026 10 16 N/A
1:15 am 01:15 Clear 30 -1.2 27 -2.6 90 90 N 10 17 30.30 1026 10 16 N/A
1:35 am 01:35 Clear 31 -0.7 28 -2.5 88 88 N 9 15 30.30 1026 10 16 N/A
1:55 am 01:55 Clear 30 -1.2 27 -2.6 90 90 N 10 17 30.30 1026 10 16 N/A
2:15 am 02:15 Clear 28 -2.1 26 -3.5 90 90 N 9 15 30.33 1027 10 16 N/A
2:35 am 02:35 Partly Cloudy 28 -2.5 26 -3.5 93 93 N 7 11 30.36 1028 10 16 N/A
2:55 am 02:55 Mostly Cloudy 30 -1 28 -2.2 92 92 NNW 7 11 30.33 1027 10 16 N/A
3:15 am 03:15 Cloudy 31 -0.5 28 -2 90 90 NW 8 13 30.33 1027 10 16 N/A
3:35 am 03:35 Cloudy 32 undefined 29 -1.6 89 89 NNW 9 15 30.36 1028 10 16 N/A
3:55 am 03:55 Cloudy 32 undefined 29 -1.6 89 89 N 7 11 30.36 1028 10 16 N/A
4:15 am 04:15 Cloudy 32 undefined 29 -1.6 89 89 N 8 13 30.36 1028 10 16 N/A
4:35 am 04:35 Cloudy 32 undefined 29 -1.7 88 88 N 7 11 30.36 1028 10 16 N/A
4:55 am 04:55 Cloudy 32 undefined 29 -1.6 89 89 NNW 6 9 30.39 1029 10 16 N/A
5:15 am 05:15 Cloudy 32 undefined 29 -1.6 89 89 N 6 9 30.39 1029 10 16 N/A
5:35 am 05:35 Cloudy 32 -0.1 29 -1.6 90 90 N 5 7 30.39 1029 10 16 N/A
5:55 am 05:55 Cloudy 32 -0.2 29 -1.6 90 90 N 6 9 30.39 1029 10 16 N/A
6:15 am 06:15 Cloudy 32 -0.2 29 -1.5 91 91 N 8 13 30.42 1030 10 16 N/A
6:35 am 06:35 Cloudy 31 -0.5 29 -1.8 91 91 NNE 9 15 30.42 1030 10 16 N/A
6:55 am 06:55 Cloudy 31 -0.5 28 -2 90 90 NNE 6 9 30.42 1030 10 16 N/A
7:15 am 07:15 Cloudy 31 -0.6 28 -2 90 90 NNE 6 9 30.48 1032 10 16 N/A
7:35 am 07:35 Cloudy 31 -0.6 28 -2 90 90 NNE 7 11 30.48 1032 10 16 N/A
7:55 am 07:55 Cloudy 31 -0.6 28 -2 90 90 NNE 7 11 30.48 1032 10 16 N/A
8:15 am 08:15 Cloudy 31 -0.6 28 -2 90 90 NNE 6 9 30.50 1033 10 16 N/A
8:35 am 08:35 Cloudy 31 -0.5 28 -2 90 90 NNE 6 9 30.45 1031 10 16 N/A
8:55 am 08:55 Cloudy 31 -0.5 28 -2.1 89 89 NNE 7 11 30.48 1032 10 16 N/A
9:15 am 09:15 Cloudy 31 -0.3 28 -2.1 88 88 NE 6 9 30.48 1032 10 16 N/A
9:35 am 09:35 Cloudy 31 -0.3 28 -2.3 87 87 NNE 7 11 30.48 1032 10 16 N/A
9:55 am 09:55 Cloudy 32 -0.1 28 -2.2 86 86 NE 6 9 30.53 1034 10 16 N/A
10:15 am 10:15 Cloudy 32 undefined 28 -2 87 87 NE 3 6 30.53 1034 10 16 N/A
10:35 am 10:35 Cloudy 32 0.1 28 -2.2 85 85 NE 7 11 30.53 1034 10 16 N/A
10:55 am 10:55 Cloudy 32 0.2 28 -2.2 84 84 NNE 5 7 30.53 1034 10 16 N/A
11:15 am 11:15 Cloudy 33 0.5 28 -2.1 83 83 NNE 5 7 30.53 1034 10 16 N/A
11:35 am 11:35 Cloudy 33 0.5 28 -2 84 84 NNE 8 13 30.53 1034 10 16 N/A
11:55 am 11:55 Cloudy 33 0.3 28 -2.2 84 84 NNE 8 13 30.56 1035 10 16 N/A
12:15 pm 12:15 Cloudy 32 0.2 28 -2.4 83 83 NE 7 11 30.56 1035 10 16 N/A
12:35 pm 12:35 Cloudy 33 0.5 28 -2.1 83 83 NNE 9 15 30.53 1034 10 16 N/A
12:55 pm 12:55 Cloudy 33 0.5 28 -2.1 83 83 NE 7 11 30.53 1034 10 16 N/A
1:15 pm 13:15 Cloudy 33 0.5 28 -2.4 81 81 NE 8 13 30.50 1033 10 16 N/A
1:35 pm 13:35 Cloudy 32 0.2 28 -2.4 83 83 NE 10 17 30.53 1034 10 16 N/A
1:55 pm 13:55 Cloudy 32 0.2 28 -2.2 84 84 NNE 10 17 30.53 1034 10 16 N/A
2:15 pm 14:15 Cloudy 32 0.2 28 -2.2 84 84 NNE 12 19 30.56 1035 10 16 N/A
2:35 pm 14:35 Cloudy 32 undefined 28 -2.2 85 85 NE 10 17 30.56 1035 10 16 N/A
2:55 pm 14:55 Cloudy 32 undefined 28 -2.2 85 85 NNE 10 17 30.53 1034 10 16 N/A
3:15 pm 15:15 Cloudy 31 -0.3 28 -2.4 86 86 NE 14 22 30.53 1034 10 16 N/A
3:35 pm 15:35 Cloudy 30 -1.2 27 -2.7 90 90 ENE 14 22 30.56 1035 7 11 N/A
3:55 pm 15:55 Cloudy with Mist and Fog 28 -2.4 26 -3.3 94 94 ENE 15 24 30.56 1035 1 2 N/A
4:15 pm 16:15 Cloudy with Freezing Fog 27 -2.7 26 -3.4 95 95 ENE 14 22 30.59 1036 1 1 N/A
4:35 pm 16:35 Cloudy with Freezing Fog 27 -3 26 -3.5 96 96 NE 15 24 30.59 1036 1 1 N/A
4:55 pm 16:55 Cloudy with Mist and Fog 26 -3.4 25 -4 96 96 ENE 12 19 30.59 1036 1 2 N/A
5:15 pm 17:15 Cloudy with Mist and Fog 26 -3.3 25 -4 95 95 NE 10 17 30.59 1036 5 8 N/A
5:35 pm 17:35 Cloudy 26 -3.3 24 -4.6 91 91 ENE 12 19 30.62 1037 10 16 N/A
5:55 pm 17:55 Cloudy 26 -3.3 22 -5.4 86 86 ENE 13 20 30.59 1036 10 16 N/A
6:15 pm 18:15 Cloudy 26 -3.3 22 -5.8 83 83 ENE 12 19 30.62 1037 10 16 N/A
6:35 pm 18:35 Cloudy 26 -3.4 21 -6 82 82 E 10 17 30.62 1037 10 16 N/A
6:55 pm 18:55 Cloudy 25 -3.7 20 -6.8 79 79 E 9 15 30.62 1037 10 16 N/A
7:15 pm 19:15 Cloudy 25 -4 18 -7.8 75 75 E 10 17 30.62 1037 10 16 N/A
7:35 pm 19:35 Cloudy 25 -4 18 -8 74 74 E 12 19 30.62 1037 10 16 N/A
7:55 pm 19:55 Cloudy 25 -4.1 18 -7.9 75 75 E 12 19 30.62 1037 10 16 N/A
8:15 pm 20:15 Cloudy 25 -4.1 18 -7.8 76 76 E 10 17 30.62 1037 10 16 N/A
8:35 pm 20:35 Cloudy 24 -4.2 18 -7.6 77 77 E 13 20 30.62 1037 10 16 N/A
8:55 pm 20:55 Cloudy 24 -4.3 18 -7.9 76 76 E 9 15 30.62 1037 10 16 N/A
9:15 pm 21:15 Cloudy 24 -4.6 18 -8 77 77 ESE 10 17 30.62 1037 10 16 N/A
9:35 pm 21:35 Cloudy 23 -4.8 18 -8 79 79 ESE 12 19 30.62 1037 10 16 N/A
9:55 pm 21:55 Cloudy 23 -5 18 -7.8 81 81 ESE 12 19 30.62 1037 10 16 N/A
10:15 pm 22:15 Cloudy 23 -5 17 -8.2 79 79 ESE 13 20 30.62 1037 10 16 N/A
10:35 pm 22:35 Cloudy 23 -5.2 18 -7.7 83 83 E 14 22 30.62 1037 10 16 N/A
10:55 pm 22:55 Cloudy 22 -5.5 17 -8.3 81 81 ESE 13 20 30.62 1037 10 16 N/A
11:15 pm 23:15 Cloudy 22 -5.7 18 -8 84 84 ESE 12 19 30.65 1038 10 16 N/A
11:35 pm 23:35 Cloudy 21 -6 17 -8.1 85 85 ESE 10 17 30.65 1038 10 16 N/A
11:55 pm 23:55 Cloudy 21 -6.2 17 -8.5 84 84 E 12 19 30.65 1038 10 16 N/A

Powered by AerisWeather